SYRACUSE 4B

Last updated on Sat Aug 22 2026 00:03:01 GMT+0000 (Coordinated Universal Time)

1 57214U 23093B 26233.40967009 -.00000055 00000+0 00000+0 0 9996 2 57214 0.0163 109.8043 0000017 17.0641 343.8879 1.00271922 7624
UTC large
Height (km)
Speed (km/s)
/
Latitude / Longitude
Inclination (degrees)
Orbital Period (minutes)
Azimuth
Elevation
Range (km)
Doppler Factor

Next 0 passes for location: London (51.5072 / 0.1276)

No passes found over London.